{"data":{"norad_id":64138,"intl_designator":"2025-111R","name":"STARLINK-34129","alt_names":[],"object_type":"PAYLOAD","status":"ACTIVE","operator":null,"country":"US","launch_date":"2025-05-24","launch_site_code":"AFETR","launch_vehicle":null,"mission":null,"orbit_class":"UNKNOWN","rcs_meters":null,"size_class":null,"mass_kg":null,"dimensions":null,"purposes":["comms"],"wikipedia_slug":null,"has_3d_model":false,"image_url":null,"decayed_at":null,"tle_current":{"epoch":"2026-05-25T00:19:31.521792Z","epoch_age_seconds":64063,"freshness":"FRESH","line1":"1 64138U 25111R   26145.01355928  .00010441  00000+0  38837-3 0  9994","line2":"2 64138  43.0028   7.0500 0001890 269.0313  91.0322 15.27583594 57182","mean_motion":15.27583594,"eccentricity":0.000189,"inclination_deg":43.0028,"raan_deg":7.05,"arg_perigee_deg":269.0313,"mean_anomaly_deg":91.0322,"bstar":0.00038837,"rev_number":5718,"period_min":94.266526928935,"perigee_km":481.74157219363,"apogee_km":484.33509647001,"semimajor_km":6861.1753343318,"source":"CELESTRAK","updated_at":"2026-05-25T13:38:20.275004Z"}}}